Погода в Инжекуме

Турция     36°39′06″N   31°43′56″E
темп.,
°C
ветер,
м/с
пор.,
м/с
влажн.,
%
обл.,
%
осадки,
мм/ч
давл.,
гПа
погр.,
м
18 мая, вт
вт1800:00+16св117563 0.0 101211
03:00+16св11690 0.0 101111
06:00+16в22632 0.0 101214
09:00+22ю22575 0.0 1013574
12:00+25ююз434938 0.0 1013946
15:00+25ююз33510 0.0 1012851
18:00+23ююз21610 0.0 1012531
21:00+17ссв00875 0.0 101311
19 мая, ср
ср1900:00+17ссв11844 0.0 101311
03:00+16ссв11790 0.0 101211
06:00+16св11635 0.0 101211
09:00+23ююз22505 0.0 1013436
12:00+26ююз43485 0.0 1013837
15:00+27ююз43450 0.0 1013808
18:00+25юз21493 0.0 1012461
21:00+18ссв11750 0.0 101211
20 мая, чт
чт2000:00+18ссв11690 0.0 101211
03:00+18св22640 0.0 101113
06:00+18всв22530 0.0 101112
09:00+25ю23380 0.0 1011471
12:00+27ю46360 0.0 1011864
15:00+27ю45400 0.0 1011849
18:00+25ююз23448 0.0 1011488
21:00+19всв22575 0.0 101117
21 мая, пт
пт2100:00+18в22391 0.0 101015
03:00+18в33300 0.0 101017
06:00+17в32380 0.0 101018
09:00+24ю24410 0.0 1010411
12:00+27ююз45380 0.0 1009957
15:00+27ю45370 0.0 1009953
18:00+24ююз34480 0.0 1009697
21:00+18вюв22790 0.0 100922
22 мая, сб
сб2200:00+16ююв228962 0.0 100918
03:00+17ююв357878 0.9 1009344
06:00+15вюв348297 0.6 100884
09:00+18ююв89591 0.7 10091407
12:00+20ююв1112490 0.0 10091448
15:00+20ююв895466 0.2 10091634
18:00+17юв576499 0.2 1008954
21:00+14св227883 0.3 100920